Wind_Speed
14 14 14 15 16 12 11 9 6 5 6 6 5 5 4 4 2 3 4 3 3 4 4 5 7 8 9 10 10 11 11 11 11 10 10 9 8 6 7 7 8 8 9
14 15 15 15 15 13 10 10 6 5 6 6 5 4 3 3 3 4 5 4 4 6 7 7 8 9 10 11 11 12 12 11 11 10 9 8 7 6 8 8 9 10 11
15 15 15 15 15 11 9 7 4 5 5 5 3 2 3 3 3 5 5 5 6 7 9 9 9 11 12 12 12 12 12 11 10 10 7 7 6 7 9 11 10 13 12
16 18 17 15 14 12 7 5 2 4 4 4 3 3 3 4 5 6 6 7 8 9 10 10 10 11 12 11 11 11 11 10 9 8 7 7 7 8 9 11 12 12 12
16 18 18 16 14 11 7 4 2 2 3 3 4 3 3 4 7 8 9 9 10 11 11 11 11 11 12 11 11 11 10 10 9 6 6 7 7 8 9 10 12 12 12
16 18 18 18 15 12 7 4 3 4 4 4 5 4 4 5 8 10 11 12 12 11 12 12 12 12 12 12 13 12 11 10 8 6 7 7 8 8 10 11 13 13 14
16 17 18 18 16 13 8 6 5 5 5 6 6 6 7 8 10 10 12 13 13 13 13 13 12 12 12 13 13 13 12 12 10 9 9 8 10 10 10 12 13 13 14
16 16 16 16 16 14 11 8 8 7 7 8 8 8 9 10 11 12 13 14 14 14 14 13 12 12 12 12 12 12 12 13 12 11 11 10 11 11 11 12 13 13 13
17 17 17 16 16 15 13 10 9 9 10 10 10 10 12 11 13 14 14 14 15 15 13 13 12 13 13 13 12 12 12 13 13 12 13 12 12 13 13 14 15 14 15
18 18 17 16 15 15 14 13 11 10 10 10 12 12 13 14 15 15 14 14 15 15 14 13 12 13 14 13 13 13 12 13 13 12 13 13 15 15 15 16 16 15 16
18 17 16 16 16 15 15 14 13 13 12 11 10 10 10 11 12 12 12 13 15 15 15 13 13 14 14 15 15 14 14 14 14 13 13 15 16 17 18 19 19 18 17
19 17 16 16 16 16 15 15 15 15 15 13 12 11 10 10 10 12 13 15 16 17 16 15 14 14 14 15 15 15 15 15 15 16 15 17 18 19 20 20 21 21 21
20 19 18 18 17 16 18 18 17 16 16 16 15 14 13 12 13 14 17 17 19 19 18 17 16 15 14 14 15 15 15 16 17 17 18 18 20 21 22 22 22 23 23
22 21 21 21 20 20 20 21 21 19 19 18 17 17 18 18 17 18 19 19 19 20 19 18 18 17 16 16 16 16 16 17 19 19 19 21 22 23 25 26 26 26 25
22 22 22 24 24 25 25 24 25 23 21 20 18 17 17 17 16 17 19 20 21 20 20 19 18 19 19 20 19 19 18 18 20 21 22 22 22 25 27 28 29 29 29
21 20 22 25 27 30 30 27 27 26 23 22 20 17 17 18 18 18 17 17 18 18 18 18 18 19 20 21 21 22 22 21 23 24 25 25 25 25 26 28 30 32 33
24 23 23 25 27 28 25 24 25 24 22 21 20 20 19 20 21 21 20 20 23 22 20 19 20 20 20 22 22 23 24 24 25 25 26 26 27 27 27 28 30 33 34
21 20 22 20 18 19 18 18 20 21 22 21 21 21 22 22 22 23 23 24 26 28 30 28 25 26 26 27 26 25 26 26 26 25 25 26 26 27 28 29 31 33 35
22 18 13 12 14 17 18 19 20 20 21 21 22 23 24 26 27 29 30 31 32 33 33 32 30 30 30 30 30 29 28 29 27 27 25 24 24 25 27 28 30 32 34
11 10 12 12 14 17 19 19 20 21 20 20 21 23 25 28 31 34 35 34 34 33 32 32 33 34 35 35 35 34 33 31 31 30 27 26 25 26 26 27 28 30 33
13 13 15 16 18 19 20 21 21 22 22 22 23 23 23 25 27 31 33 33 34 34 32 33 35 36 36 37 40 39 38 36 34 32 32 29 29 28 27 27 27 28 29
14 16 17 19 19 17 18 19 21 21 22 22 21 23 26 26 28 29 31 32 33 34 34 35 38 39 41 39 43 45 47 41 36 32 34 34 32 33 30 29 29 29 29
13 14 14 14 15 15 16 18 19 21 21 21 20 21 25 28 31 33 35 36 37 38 38 40 42 43 45 41 41 43 48 51 46 37 35 36 36 35 33 32 32 31 31
12 11 10 13 17 21 23 23 23 23 23 24 23 23 25 29 31 33 34 36 36 38 40 41 43 43 43 43 41 42 45 47 47 50 40 37 38 37 37 37 37 33 33
11 14 17 19 21 24 26 26 26 26 26 27 28 28 28 30 32 34 36 36 38 39 40 40 40 41 42 44 43 42 44 46 45 48 51 42 42 39 41 41 39 37 36
18 20 20 22 26 30 28 26 25 24 25 26 27 28 29 30 32 34 35 37 38 40 41 43 43 43 42 40 43 42 43 46 46 48 52 52 52 46 44 44 43 40 37
Wind_Direction
333 336 337 341 339 328 315 306 292 257 237 229 215 219 212 235 254 269 269 259 276 277 275 286 291 305 307 309 308 308 312 314 314 315 311 300 288 280 278 286 292 300 308
338 338 335 338 340 332 321 308 287 243 234 222 210 216 235 240 255 273 269 269 276 285 289 290 299 306 303 311 315 312 314 316 317 317 311 304 289 292 296 305 318 321 323
346 343 338 335 337 332 319 301 264 245 237 235 214 228 243 260 275 273 277 280 278 284 293 301 306 308 311 316 312 309 311 313 316 313 309 301 299 305 320 326 329 329 332
352 351 347 338 333 330 325 309 272 231 215 216 204 212 243 266 277 277 285 287 295 299 305 310 309 305 305 311 310 306 307 309 315 314 310 306 313 311 329 329 327 327 328
352 352 351 343 334 326 325 309 280 252 233 224 225 225 253 278 291 296 299 304 305 308 310 306 303 303 307 309 308 309 307 307 318 322 297 297 296 310 323 322 322 321 327
352 351 352 350 341 329 313 303 297 290 288 272 249 257 287 298 295 300 304 305 303 303 303 301 306 310 313 317 315 309 306 306 311 302 277 287 292 303 319 322 320 323 331
349 348 351 352 353 340 319 303 288 291 295 291 296 299 291 287 289 294 295 296 297 301 302 303 307 312 316 318 315 311 313 313 316 302 286 288 292 298 310 315 317 323 327
345 347 347 348 355 353 339 317 302 301 299 297 300 298 290 288 286 289 291 293 299 298 301 304 309 311 313 311 309 312 318 313 311 300 290 284 285 292 301 306 310 314 318
346 346 345 345 351 358 349 334 312 299 293 296 299 295 291 291 287 288 289 294 294 297 298 300 305 306 309 312 312 313 312 306 305 299 293 294 289 287 291 299 305 310 311
343 345 343 344 348 350 354 353 341 319 308 308 299 296 291 286 285 286 292 295 294 295 294 298 302 305 306 309 309 307 304 301 299 299 293 293 292 289 288 289 294 299 301
334 340 341 341 345 347 348 349 349 342 339 330 319 313 298 297 294 294 296 292 295 298 298 299 300 304 310 312 310 304 302 297 296 298 298 293 293 291 290 290 290 291 293
323 329 331 334 338 342 341 343 344 343 342 335 329 321 314 304 292 291 292 297 306 306 306 303 301 305 308 310 306 302 299 298 300 298 298 294 292 291 289 288 288 288 288
313 319 319 318 324 326 329 331 335 337 333 332 331 321 313 301 297 301 303 305 305 303 303 302 301 301 304 305 302 302 301 305 302 297 295 291 290 289 288 287 285 284 284
305 310 309 309 311 312 314 318 320 322 327 329 330 326 320 315 312 306 301 302 301 300 298 295 297 298 300 300 300 303 306 307 305 303 298 293 289 286 285 285 284 283 282
301 301 305 305 306 306 306 307 309 315 320 323 327 327 326 323 319 310 303 303 304 305 305 302 299 297 297 296 300 301 303 304 303 304 301 296 292 287 284 283 282 281 281
286 291 291 296 298 299 301 302 305 312 316 323 326 328 329 328 329 328 331 333 325 318 315 312 310 307 303 299 297 296 296 298 300 301 300 297 294 290 287 284 281 280 279
279 281 289 295 298 301 300 300 299 303 307 314 318 322 328 328 330 330 333 337 337 333 317 315 317 312 307 304 299 296 296 298 296 296 296 296 293 291 286 282 280 278 277
289 299 299 302 312 309 310 299 293 293 295 299 306 310 315 315 314 315 318 318 318 317 317 315 311 312 312 308 300 296 294 293 293 294 292 295 295 292 288 284 280 278 277
300 300 298 304 311 315 316 310 304 299 296 295 293 296 301 300 299 302 304 304 303 301 300 300 305 303 303 303 302 296 291 289 288 285 287 291 292 293 293 289 283 280 277
310 307 305 308 309 307 308 309 305 300 296 289 285 283 283 283 282 284 288 292 292 290 290 291 292 293 294 294 290 290 288 287 286 283 282 283 285 291 293 291 289 285 280
308 312 310 308 307 307 305 302 301 303 303 300 288 283 285 285 283 281 282 285 290 288 286 287 289 291 292 288 285 287 285 282 284 285 279 277 278 286 288 290 290 288 286
301 303 305 308 309 311 312 312 310 308 308 304 295 279 274 279 288 286 285 286 287 285 282 283 283 286 286 286 286 286 286 283 282 284 276 269 270 276 283 287 287 286 285
294 300 303 309 319 329 331 328 325 320 317 314 306 296 286 284 289 288 286 287 288 286 284 283 283 284 287 284 283 281 285 288 290 282 275 268 267 270 275 278 277 279 282
293 298 311 326 336 337 334 329 324 320 318 315 310 302 293 289 289 288 287 287 287 285 284 283 283 284 283 283 281 280 278 282 283 287 278 269 268 269 272 274 275 275 273
307 319 325 330 335 337 335 328 320 315 309 305 303 300 297 295 294 293 293 292 290 288 286 285 283 282 282 282 283 283 282 279 278 283 286 276 270 271 272 274 272 271 271
319 320 319 318 319 324 325 321 311 300 295 292 291 289 289 288 287 289 289 289 289 289 289 289 288 286 284 281 285 283 282 283 284 283 283 284 285 275 272 271 269 267 265
Height
3158 3155 3153 3151 3148 3146 3144 3143 3143 3144 3144 3144 3144 3143 3142 3143 3143 3144 3143 3144 3143 3143 3142 3142 3141 3140 3139 3138 3138 3137 3135 3135 3134 3133 3132 3131 3129 3128 3127 3127 3125 3123 3122
3157 3155 3152 3150 3148 3145 3143 3142 3142 3143 3143 3143 3143 3142 3142 3142 3143 3143 3144 3143 3143 3143 3142 3141 3140 3140 3139 3138 3137 3135 3134 3133 3132 3131 3131 3130 3129 3128 3127 3125 3124 3122 3120
3156 3154 3152 3150 3147 3146 3144 3142 3141 3141 3141 3142 3141 3141 3142 3143 3143 3144 3144 3142 3143 3142 3141 3141 3140 3140 3138 3137 3136 3134 3132 3132 3131 3130 3129 3129 3128 3127 3126 3124 3121 3120 3118
3156 3154 3152 3150 3147 3145 3143 3142 3141 3141 3141 3141 3141 3141 3142 3143 3143 3143 3143 3142 3142 3141 3141 3140 3139 3137 3136 3135 3133 3132 3131 3130 3130 3128 3127 3127 3126 3125 3123 3122 3121 3118 3117
3156 3154 3152 3150 3147 3145 3143 3142 3142 3142 3141 3141 3141 3140 3142 3142 3142 3142 3142 3141 3141 3140 3139 3138 3136 3135 3133 3132 3131 3130 3129 3128 3127 3126 3125 3125 3124 3122 3121 3120 3119 3117 3115
3156 3154 3152 3150 3147 3145 3144 3143 3142 3142 3141 3141 3141 3140 3140 3141 3142 3141 3141 3141 3139 3138 3137 3135 3134 3133 3132 3131 3130 3129 3127 3125 3124 3124 3123 3123 3122 3121 3120 3119 3118 3116 3114
3156 3154 3152 3150 3147 3145 3144 3143 3142 3141 3141 3141 3141 3139 3140 3141 3141 3140 3139 3138 3137 3135 3134 3134 3133 3131 3131 3129 3127 3127 3126 3125 3124 3123 3122 3122 3121 3119 3118 3117 3116 3115 3113
3155 3154 3152 3150 3148 3146 3143 3142 3142 3141 3141 3142 3140 3139 3139 3139 3139 3138 3137 3136 3134 3133 3132 3131 3130 3129 3127 3126 3125 3124 3123 3123 3122 3121 3121 3120 3119 3117 3116 3115 3114 3112 3111
3154 3152 3151 3150 3147 3145 3144 3142 3141 3141 3141 3139 3138 3138 3138 3137 3136 3135 3135 3133 3132 3131 3130 3129 3127 3126 3125 3124 3122 3121 3120 3120 3120 3120 3118 3117 3116 3115 3114 3113 3112 3111 3110
3153 3151 3149 3148 3147 3145 3144 3142 3141 3140 3138 3136 3136 3136 3135 3134 3133 3133 3132 3131 3130 3129 3127 3126 3125 3124 3123 3121 3119 3118 3117 3117 3117 3117 3115 3115 3114 3113 3112 3111 3110 3109 3108
3152 3150 3149 3147 3145 3144 3142 3142 3140 3138 3136 3135 3134 3133 3132 3131 3131 3130 3130 3128 3127 3126 3126 3124 3123 3122 3120 3119 3117 3116 3115 3114 3113 3112 3112 3111 3110 3110 3109 3108 3107 3106 3105
3150 3149 3148 3146 3145 3143 3142 3140 3139 3137 3135 3134 3132 3131 3130 3130 3129 3127 3126 3125 3125 3124 3123 3121 3120 3119 3118 3116 3114 3113 3111 3110 3109 3108 3108 3107 3106 3105 3105 3104 3104 3103 3102
3147 3146 3145 3145 3143 3142 3140 3139 3137 3135 3134 3132 3130 3129 3128 3128 3126 3125 3124 3123 3122 3121 3120 3119 3118 3116 3114 3113 3111 3109 3107 3106 3105 3104 3104 3103 3102 3101 3100 3099 3098 3098 3097
3144 3142 3141 3141 3140 3139 3139 3136 3135 3134 3131 3130 3129 3127 3126 3125 3124 3123 3122 3121 3119 3118 3116 3115 3113 3112 3110 3109 3107 3105 3103 3102 3101 3100 3100 3098 3097 3096 3095 3094 3093 3092 3091
3141 3139 3137 3136 3136 3135 3135 3134 3132 3129 3127 3127 3126 3125 3123 3122 3121 3120 3118 3116 3115 3113 3111 3110 3109 3107 3105 3104 3103 3102 3100 3098 3097 3095 3094 3093 3092 3090 3089 3088 3087 3086 3085
3136 3136 3134 3132 3130 3129 3129 3128 3126 3124 3124 3123 3122 3122 3121 3119 3118 3117 3115 3113 3111 3109 3108 3106 3105 3103 3101 3099 3098 3096 3095 3093 3092 3091 3089 3087 3085 3084 3082 3081 3080 3079 3078
3132 3131 3131 3129 3127 3125 3123 3122 3122 3121 3120 3120 3120 3118 3117 3116 3115 3113 3111 3110 3108 3105 3104 3102 3100 3097 3096 3094 3093 3092 3090 3089 3087 3085 3083 3080 3078 3077 3075 3073 3071 3070 3069
3129 3128 3127 3125 3123 3121 3118 3117 3117 3117 3116 3116 3116 3115 3113 3112 3110 3108 3106 3105 3103 3102 3100 3098 3095 3093 3091 3089 3087 3085 3083 3081 3079 3077 3075 3073 3071 3068 3067 3065 3063 3061 3060
3124 3123 3122 3121 3120 3117 3115 3114 3113 3111 3111 3111 3111 3110 3109 3106 3104 3102 3101 3099 3098 3096 3093 3091 3089 3086 3084 3082 3079 3077 3075 3073 3072 3070 3068 3066 3063 3061 3059 3057 3054 3052 3051
3120 3119 3118 3117 3115 3113 3112 3110 3109 3107 3106 3106 3105 3104 3102 3101 3098 3096 3094 3092 3090 3088 3086 3083 3081 3079 3076 3073 3070 3067 3065 3064 3063 3061 3060 3058 3056 3053 3051 3048 3046 3044 3041
3116 3115 3114 3113 3111 3109 3108 3106 3104 3102 3101 3100 3099 3098 3097 3094 3091 3088 3086 3085 3083 3081 3079 3077 3074 3070 3068 3065 3059 3057 3054 3054 3053 3052 3049 3048 3047 3045 3043 3040 3037 3034 3032
3114 3111 3110 3108 3108 3107 3105 3102 3099 3098 3096 3094 3092 3090 3088 3087 3086 3083 3081 3078 3076 3073 3071 3069 3065 3062 3058 3058 3051 3045 3039 3042 3043 3043 3039 3037 3036 3034 3033 3032 3029 3026 3023
3111 3109 3108 3107 3105 3103 3102 3099 3097 3095 3092 3090 3087 3086 3084 3082 3080 3077 3075 3072 3069 3066 3064 3061 3058 3054 3049 3048 3045 3039 3030 3024 3026 3031 3028 3025 3024 3023 3022 3019 3017 3016 3013
3108 3107 3105 3104 3102 3100 3098 3096 3094 3091 3089 3086 3084 3082 3079 3076 3074 3070 3066 3063 3061 3057 3054 3051 3048 3044 3040 3036 3034 3031 3026 3021 3014 3008 3016 3015 3012 3012 3010 3008 3005 3004 3001
3106 3105 3103 3101 3099 3096 3094 3091 3089 3086 3083 3080 3078 3075 3073 3070 3066 3062 3058 3055 3051 3047 3044 3040 3037 3033 3030 3025 3023 3020 3015 3011 3008 3002 2993 2999 2999 2999 2997 2995 2994 2993 2990
3104 3102 3101 3099 3096 3093 3089 3086 3083 3080 3077 3075 3072 3069 3066 3063 3059 3054 3050 3046 3042 3039 3035 3031 3028 3024 3020 3017 3013 3010 3006 3001 2998 2993 2986 2982 2981 2985 2983 2981 2981 2981 2979